Wetterdaten: Mittwoch, 16.12.2015
Datum Zeit Temp. A. Feuchte A. Luftdruck Regen Wind Richtung Richtung Sonnenschein ET UV Solar Taupunkt Windchill Windben Empfang
16.12.2015 00:00 4,1 C 96 % 1028,4 hPa 0,0 l/m 0,4 km/h (0 Bft) S 175 0 min 0,000 mm 0,0 UV-I 0 W/m 3,5 C 4,1 C 1,6 km/h (1 Bft) 99,06 %
16.12.2015 00:05 4,1 C 96 % 1028,4 hPa 0,0 l/m 1,3 km/h (1 Bft) S 175 0 min 0,000 mm 0,0 UV-I 0 W/m 3,5 C 4,1 C 3,2 km/h (1 Bft) 100,00 %
16.12.2015 00:10 4,2 C 96 % 1028,4 hPa 0,0 l/m 1,0 km/h (0 Bft) S 175 0 min 0,000 mm 0,0 UV-I 0 W/m 3,6 C 4,2 C 3,2 km/h (1 Bft) 100,00 %
16.12.2015 00:15 4,2 C 96 % 1028,3 hPa 0,0 l/m 0,5 km/h (0 Bft) S 175 0 min 0,000 mm 0,0 UV-I 0 W/m 3,6 C 4,2 C 1,6 km/h (1 Bft) 100,00 %
16.12.2015 00:20 4,1 C 96 % 1028,4 hPa 0,0 l/m 1,9 km/h (1 Bft) S 175 0 min 0,000 mm 0,0 UV-I 0 W/m 3,5 C 4,1 C 3,2 km/h (1 Bft) 100,00 %
16.12.2015 00:25 4,2 C 96 % 1028,4 hPa 0,0 l/m 1,7 km/h (1 Bft) S 175 0 min 0,000 mm 0,0 UV-I 0 W/m 3,6 C 4,2 C 3,2 km/h (1 Bft) 99,10 %
16.12.2015 00:30 4,2 C 96 % 1028,5 hPa 0,0 l/m 2,4 km/h (1 Bft) S 175 0 min 0,000 mm 0,0 UV-I 0 W/m 3,6 C 4,2 C 3,2 km/h (1 Bft) 99,15 %
16.12.2015 00:35 4,2 C 96 % 1028,4 hPa 0,0 l/m 1,7 km/h (1 Bft) S 175 0 min 0,000 mm 0,0 UV-I 0 W/m 3,6 C 4,2 C 3,2 km/h (1 Bft) 99,21 %
16.12.2015 00:40 4,1 C 96 % 1028,4 hPa 0,0 l/m 0,0 km/h (0 Bft) S 175 0 min 0,000 mm 0,0 UV-I 0 W/m 3,5 C 4,1 C 0,0 km/h (0 Bft) 100,00 %
16.12.2015 00:45 4,1 C 96 % 1028,4 hPa 0,0 l/m 0,2 km/h (0 Bft) S 175 0 min 0,000 mm 0,0 UV-I 0 W/m 3,5 C 4,1 C 1,6 km/h (1 Bft) 99,19 %
16.12.2015 00:50 4,2 C 96 % 1028,4 hPa 0,0 l/m 0,7 km/h (0 Bft) S 175 0 min 0,000 mm 0,0 UV-I 0 W/m 3,6 C 4,2 C 3,2 km/h (1 Bft) 98,20 %
16.12.2015 00:55 4,1 C 96 % 1028,4 hPa 0,0 l/m 2,0 km/h (1 Bft) S 175 0 min 0,000 mm 0,0 UV-I 0 W/m 3,5 C 4,1 C 3,2 km/h (1 Bft) 99,19 %
16.12.2015 01:00 4,1 C 96 % 1028,4 hPa 0,0 l/m 1,2 km/h (1 Bft) S 175 0 min 0,000 mm 0,0 UV-I 0 W/m 3,5 C 4,1 C 3,2 km/h (1 Bft) 99,08 %
16.12.2015 01:05 4,1 C 96 % 1028,5 hPa 0,0 l/m 0,9 km/h (0 Bft) S 175 0 min 0,000 mm 0,0 UV-I 0 W/m 3,5 C 4,1 C 1,6 km/h (1 Bft) 96,83 %
16.12.2015 01:10 4,1 C 96 % 1028,5 hPa 0,0 l/m 0,9 km/h (0 Bft) S 175 0 min 0,000 mm 0,0 UV-I 0 W/m 3,5 C 4,1 C 1,6 km/h (1 Bft) 96,52 %
16.12.2015 01:15 4,1 C 96 % 1028,5 hPa 0,0 l/m 1,9 km/h (1 Bft) S 175 0 min 0,000 mm 0,0 UV-I 0 W/m 3,5 C 4,1 C 3,2 km/h (1 Bft) 97,50 %
16.12.2015 01:20 4,1 C 96 % 1028,5 hPa 0,0 l/m 0,7 km/h (0 Bft) S 175 0 min 0,000 mm 0,0 UV-I 0 W/m 3,5 C 4,1 C 3,2 km/h (1 Bft) 97,39 %
16.12.2015 01:25 4,1 C 96 % 1028,4 hPa 0,0 l/m 0,0 km/h (0 Bft) S 175 0 min 0,000 mm 0,0 UV-I 0 W/m 3,5 C 4,1 C 0,0 km/h (0 Bft) 97,46 %
16.12.2015 01:30 4,1 C 96 % 1028,5 hPa 0,0 l/m 0,5 km/h (0 Bft) S-SW 198 0 min 0,000 mm 0,0 UV-I 0 W/m 3,5 C 4,1 C 3,2 km/h (1 Bft) 96,58 %
16.12.2015 01:35 4,1 C 96 % 1028,6 hPa 0,0 l/m 0,0 km/h (0 Bft) S-SW 198 0 min 0,000 mm 0,0 UV-I 0 W/m 3,5 C 4,1 C 1,6 km/h (1 Bft) 96,33 %
16.12.2015 01:40 4,1 C 96 % 1028,6 hPa 0,0 l/m 0,0 km/h (0 Bft) S-SW 198 0 min 0,000 mm 0,0 UV-I 0 W/m 3,5 C 4,1 C 1,6 km/h (1 Bft) 96,77 %
16.12.2015 01:45 4,0 C 96 % 1028,6 hPa 0,0 l/m 0,2 km/h (0 Bft) S-SW 198 0 min 0,000 mm 0,0 UV-I 0 W/m 3,4 C 4,0 C 1,6 km/h (1 Bft) 100,00 %
16.12.2015 01:50 3,9 C 97 % 1028,5 hPa 0,0 l/m 0,2 km/h (0 Bft) S-SW 198 0 min 0,000 mm 0,0 UV-I 0 W/m 3,5 C 3,9 C 1,6 km/h (1 Bft) 99,25 %
16.12.2015 01:55 4,0 C 97 % 1028,5 hPa 0,0 l/m 1,0 km/h (0 Bft) S-SW 198 0 min 0,000 mm 0,0 UV-I 0 W/m 3,6 C 4,0 C 3,2 km/h (1 Bft) 100,00 %
16.12.2015 02:00 4,0 C 97 % 1028,5 hPa 0,0 l/m 0,3 km/h (0 Bft) S-SW 198 0 min 0,000 mm 0,0 UV-I 0 W/m 3,6 C 4,0 C 1,6 km/h (1 Bft) 99,19 %
16.12.2015 02:05 4,0 C 96 % 1028,5 hPa 0,0 l/m 0,9 km/h (0 Bft) S-SW 198 0 min 0,000 mm 0,0 UV-I 0 W/m 3,4 C 4,0 C 3,2 km/h (1 Bft) 99,11 %
16.12.2015 02:10 4,0 C 97 % 1028,5 hPa 0,0 l/m 3,0 km/h (1 Bft) S-SW 198 0 min 0,000 mm 0,0 UV-I 0 W/m 3,6 C 4,0 C 4,8 km/h (1 Bft) 99,19 %
16.12.2015 02:15 3,9 C 97 % 1028,6 hPa 0,0 l/m 2,7 km/h (1 Bft) S-SW 198 0 min 0,000 mm 0,0 UV-I 0 W/m 3,5 C 3,9 C 4,8 km/h (1 Bft) 99,19 %
16.12.2015 02:20 3,9 C 97 % 1028,6 hPa 0,0 l/m 2,2 km/h (1 Bft) S-SW 198 0 min 0,000 mm 0,0 UV-I 0 W/m 3,5 C 3,9 C 3,2 km/h (1 Bft) 99,13 %
16.12.2015 02:25 3,8 C 97 % 1028,7 hPa 0,0 l/m 0,8 km/h (0 Bft) S-SW 198 0 min 0,000 mm 0,0 UV-I 0 W/m 3,4 C 3,8 C 3,2 km/h (1 Bft) 100,00 %
16.12.2015 02:30 3,9 C 97 % 1028,7 hPa 0,0 l/m 0,6 km/h (0 Bft) S-SW 198 0 min 0,000 mm 0,0 UV-I 0 W/m 3,5 C 3,9 C 3,2 km/h (1 Bft) 100,00 %
16.12.2015 02:35 4,0 C 97 % 1028,8 hPa 0,0 l/m 0,4 km/h (0 Bft) S-SW 198 0 min 0,000 mm 0,0 UV-I 0 W/m 3,6 C 4,0 C 1,6 km/h (1 Bft) 100,00 %
16.12.2015 02:40 4,1 C 97 % 1028,6 hPa 0,0 l/m 0,8 km/h (0 Bft) S-SW 198 0 min 0,000 mm 0,0 UV-I 0 W/m 3,7 C 4,1 C 3,2 km/h (1 Bft) 99,17 %
16.12.2015 02:45 4,1 C 97 % 1028,6 hPa 0,0 l/m 1,1 km/h (1 Bft) S-SW 198 0 min 0,000 mm 0,0 UV-I 0 W/m 3,7 C 4,1 C 3,2 km/h (1 Bft) 100,00 %
16.12.2015 02:50 4,1 C 97 % 1028,6 hPa 0,0 l/m 1,2 km/h (1 Bft) S-SW 198 0 min 0,000 mm 0,0 UV-I 0 W/m 3,7 C 4,1 C 3,2 km/h (1 Bft) 100,00 %
16.12.2015 02:55 4,1 C 97 % 1028,7 hPa 0,0 l/m 0,3 km/h (0 Bft) S-SW 198 0 min 0,000 mm 0,0 UV-I 0 W/m 3,7 C 4,1 C 1,6 km/h (1 Bft) 99,08 %
16.12.2015 03:00 4,1 C 97 % 1028,8 hPa 0,0 l/m 0,1 km/h (0 Bft) S-SW 198 0 min 0,000 mm 0,0 UV-I 0 W/m 3,7 C 4,1 C 1,6 km/h (1 Bft) 99,19 %
16.12.2015 03:05 4,0 C 97 % 1028,8 hPa 0,0 l/m 0,3 km/h (0 Bft) S-SW 198 0 min 0,000 mm 0,0 UV-I 0 W/m 3,6 C 4,0 C 1,6 km/h (1 Bft) 99,02 %
16.12.2015 03:10 3,9 C 97 % 1028,8 hPa 0,0 l/m 0,2 km/h (0 Bft) S-SW 198 0 min 0,000 mm 0,0 UV-I 0 W/m 3,5 C 3,9 C 1,6 km/h (1 Bft) 99,21 %
16.12.2015 03:15 3,9 C 97 % 1028,8 hPa 0,0 l/m 0,9 km/h (0 Bft) S-SW 198 0 min 0,000 mm 0,0 UV-I 0 W/m 3,5 C 3,9 C 1,6 km/h (1 Bft) 95,76 %
16.12.2015 03:20 4,0 C 97 % 1028,8 hPa 0,0 l/m 1,1 km/h (1 Bft) S-SW 198 0 min 0,000 mm 0,0 UV-I 0 W/m 3,6 C 4,0 C 3,2 km/h (1 Bft) 97,37 %
16.12.2015 03:25 4,1 C 97 % 1028,8 hPa 0,0 l/m 2,4 km/h (1 Bft) O-NO 61 0 min 0,000 mm 0,0 UV-I 0 W/m 3,7 C 4,1 C 4,8 km/h (1 Bft) 96,52 %
16.12.2015 03:30 4,1 C 97 % 1028,7 hPa 0,0 l/m 1,4 km/h (1 Bft) O-NO 61 0 min 0,000 mm 0,0 UV-I 0 W/m 3,7 C 4,1 C 3,2 km/h (1 Bft) 96,83 %
16.12.2015 03:35 4,1 C 97 % 1028,7 hPa 0,0 l/m 3,0 km/h (1 Bft) O-NO 60 0 min 0,000 mm 0,0 UV-I 0 W/m 3,7 C 4,1 C 4,8 km/h (1 Bft) 96,46 %
16.12.2015 03:40 4,1 C 97 % 1028,7 hPa 0,0 l/m 3,1 km/h (1 Bft) O-NO 59 0 min 0,000 mm 0,0 UV-I 0 W/m 3,7 C 4,1 C 4,8 km/h (1 Bft) 96,69 %
16.12.2015 03:45 4,1 C 97 % 1028,7 hPa 0,0 l/m 3,4 km/h (1 Bft) NO 40 0 min 0,000 mm 0,0 UV-I 0 W/m 3,7 C 4,1 C 6,4 km/h (2 Bft) 95,54 %
16.12.2015 03:50 4,0 C 97 % 1028,7 hPa 0,0 l/m 3,9 km/h (1 Bft) N-NO 24 0 min 0,000 mm 0,0 UV-I 0 W/m 3,6 C 4,0 C 6,4 km/h (2 Bft) 98,39 %
16.12.2015 03:55 4,0 C 97 % 1028,7 hPa 0,0 l/m 2,0 km/h (1 Bft) N-NO 24 0 min 0,000 mm 0,0 UV-I 0 W/m 3,6 C 4,0 C 4,8 km/h (1 Bft) 98,21 %
16.12.2015 04:00 4,0 C 97 % 1028,7 hPa 0,0 l/m 0,3 km/h (0 Bft) N-NO 24 0 min 0,000 mm 0,0 UV-I 0 W/m 3,6 C 4,0 C 3,2 km/h (1 Bft) 99,19 %
16.12.2015 04:05 3,9 C 97 % 1028,7 hPa 0,0 l/m 1,2 km/h (1 Bft) N-NO 18 0 min 0,000 mm 0,0 UV-I 0 W/m 3,5 C 3,9 C 3,2 km/h (1 Bft) 100,00 %
16.12.2015 04:10 3,9 C 97 % 1028,7 hPa 0,0 l/m 1,6 km/h (1 Bft) N-NO 18 0 min 0,000 mm 0,0 UV-I 0 W/m 3,5 C 3,9 C 3,2 km/h (1 Bft) 99,21 %
16.12.2015 04:15 3,9 C 97 % 1028,8 hPa 0,0 l/m 0,1 km/h (0 Bft) N-NO 19 0 min 0,000 mm 0,0 UV-I 0 W/m 3,5 C 3,9 C 1,6 km/h (1 Bft) 100,00 %
16.12.2015 04:20 3,9 C 97 % 1028,8 hPa 0,0 l/m 0,0 km/h (0 Bft) N-NO 19 0 min 0,000 mm 0,0 UV-I 0 W/m 3,5 C 3,9 C 0,0 km/h (0 Bft) 100,00 %
16.12.2015 04:25 3,8 C 97 % 1028,8 hPa 0,0 l/m 0,0 km/h (0 Bft) N-NO 19 0 min 0,000 mm 0,0 UV-I 0 W/m 3,4 C 3,8 C 0,0 km/h (0 Bft) 99,17 %
16.12.2015 04:30 3,9 C 97 % 1028,8 hPa 0,0 l/m 0,0 km/h (0 Bft) N-NO 19 0 min 0,000 mm 0,0 UV-I 0 W/m 3,5 C 3,9 C 0,0 km/h (0 Bft) 99,11 %
16.12.2015 04:35 3,9 C 97 % 1028,8 hPa 0,0 l/m 0,8 km/h (0 Bft) N-NO 19 0 min 0,000 mm 0,0 UV-I 0 W/m 3,5 C 3,9 C 3,2 km/h (1 Bft) 99,13 %
16.12.2015 04:40 3,9 C 97 % 1028,8 hPa 0,0 l/m 1,2 km/h (1 Bft) N-NO 19 0 min 0,000 mm 0,0 UV-I 0 W/m 3,5 C 3,9 C 3,2 km/h (1 Bft) 99,17 %
16.12.2015 04:45 3,9 C 97 % 1028,7 hPa 0,0 l/m 0,6 km/h (0 Bft) NO 56 0 min 0,000 mm 0,0 UV-I 0 W/m 3,5 C 3,9 C 3,2 km/h (1 Bft) 100,00 %
16.12.2015 04:50 3,9 C 97 % 1028,8 hPa 0,0 l/m 0,9 km/h (0 Bft) NO 56 0 min 0,000 mm 0,0 UV-I 0 W/m 3,5 C 3,9 C 1,6 km/h (1 Bft) 100,00 %
16.12.2015 04:55 3,8 C 97 % 1028,8 hPa 0,0 l/m 0,0 km/h (0 Bft) NO 56 0 min 0,000 mm 0,0 UV-I 0 W/m 3,4 C 3,8 C 1,6 km/h (1 Bft) 99,15 %
16.12.2015 05:00 3,9 C 97 % 1028,8 hPa 0,0 l/m 1,1 km/h (1 Bft) NO 56 0 min 0,000 mm 0,0 UV-I 0 W/m 3,5 C 3,9 C 3,2 km/h (1 Bft) 98,35 %
16.12.2015 05:05 3,9 C 97 % 1028,8 hPa 0,0 l/m 2,7 km/h (1 Bft) NO 56 0 min 0,000 mm 0,0 UV-I 0 W/m 3,5 C 3,9 C 4,8 km/h (1 Bft) 99,05 %
16.12.2015 05:10 3,9 C 97 % 1028,8 hPa 0,0 l/m 1,1 km/h (1 Bft) NO 56 0 min 0,000 mm 0,0 UV-I 0 W/m 3,5 C 3,9 C 3,2 km/h (1 Bft) 97,58 %
16.12.2015 05:15 3,9 C 97 % 1028,8 hPa 0,0 l/m 0,0 km/h (0 Bft) NO 56 0 min 0,000 mm 0,0 UV-I 0 W/m 3,5 C 3,9 C 0,0 km/h (0 Bft) 97,54 %
16.12.2015 05:20 3,9 C 97 % 1028,8 hPa 0,0 l/m 0,0 km/h (0 Bft) NO 56 0 min 0,000 mm 0,0 UV-I 0 W/m 3,5 C 3,9 C 0,0 km/h (0 Bft) 98,31 %
16.12.2015 05:25 3,9 C 97 % 1028,9 hPa 0,0 l/m 0,5 km/h (0 Bft) NO 56 0 min 0,000 mm 0,0 UV-I 0 W/m 3,5 C 3,9 C 1,6 km/h (1 Bft) 96,52 %
16.12.2015 05:30 3,8 C 97 % 1028,9 hPa 0,0 l/m 0,0 km/h (0 Bft) NO 56 0 min 0,000 mm 0,0 UV-I 0 W/m 3,4 C 3,8 C 1,6 km/h (1 Bft) 96,67 %
16.12.2015 05:35 3,8 C 97 % 1028,9 hPa 0,0 l/m 1,1 km/h (1 Bft) NO 56 0 min 0,000 mm 0,0 UV-I 0 W/m 3,4 C 3,8 C 3,2 km/h (1 Bft) 96,43 %
16.12.2015 05:40 3,8 C 97 % 1028,9 hPa 0,0 l/m 0,7 km/h (0 Bft) NO 56 0 min 0,000 mm 0,0 UV-I 0 W/m 3,4 C 3,8 C 3,2 km/h (1 Bft) 97,32 %
16.12.2015 05:45 3,8 C 97 % 1028,9 hPa 0,0 l/m 0,3 km/h (0 Bft) NO 56 0 min 0,000 mm 0,0 UV-I 0 W/m 3,4 C 3,8 C 3,2 km/h (1 Bft) 97,66 %
16.12.2015 05:50 3,8 C 97 % 1028,8 hPa 0,0 l/m 0,0 km/h (0 Bft) NO 56 0 min 0,000 mm 0,0 UV-I 0 W/m 3,4 C 3,8 C 0,0 km/h (0 Bft) 99,13 %
16.12.2015 05:55 3,7 C 97 % 1029,0 hPa 0,0 l/m 0,0 km/h (0 Bft) NO 56 0 min 0,000 mm 0,0 UV-I 0 W/m 3,3 C 3,7 C 1,6 km/h (1 Bft) 97,17 %
16.12.2015 06:00 3,6 C 97 % 1029,0 hPa 0,0 l/m 0,2 km/h (0 Bft) NO 56 0 min 0,000 mm 0,0 UV-I 0 W/m 3,2 C 3,6 C 1,6 km/h (1 Bft) 99,19 %
16.12.2015 06:05 3,6 C 97 % 1029,1 hPa 0,0 l/m 0,3 km/h (0 Bft) NO 56 0 min 0,000 mm 0,0 UV-I 0 W/m 3,2 C 3,6 C 1,6 km/h (1 Bft) 100,00 %
16.12.2015 06:10 3,7 C 97 % 1029,1 hPa 0,0 l/m 0,8 km/h (0 Bft) NO 56 0 min 0,000 mm 0,0 UV-I 0 W/m 3,3 C 3,7 C 3,2 km/h (1 Bft) 98,29 %
16.12.2015 06:15 3,7 C 97 % 1029,1 hPa 0,0 l/m 0,7 km/h (0 Bft) NO 56 0 min 0,000 mm 0,0 UV-I 0 W/m 3,3 C 3,7 C 1,6 km/h (1 Bft) 99,12 %
16.12.2015 06:20 3,7 C 97 % 1029,0 hPa 0,0 l/m 0,4 km/h (0 Bft) NO 56 0 min 0,000 mm 0,0 UV-I 0 W/m 3,3 C 3,7 C 1,6 km/h (1 Bft) 98,39 %
16.12.2015 06:25 3,7 C 97 % 1029,0 hPa 0,0 l/m 0,1 km/h (0 Bft) NO 56 0 min 0,000 mm 0,0 UV-I 0 W/m 3,3 C 3,7 C 1,6 km/h (1 Bft) 100,00 %
16.12.2015 06:30 3,7 C 97 % 1029,1 hPa 0,0 l/m 0,0 km/h (0 Bft) NO 56 0 min 0,000 mm 0,0 UV-I 0 W/m 3,3 C 3,7 C 0,0 km/h (0 Bft) 99,21 %
16.12.2015 06:35 3,7 C 97 % 1029,1 hPa 0,0 l/m 1,3 km/h (1 Bft) NO 56 0 min 0,000 mm 0,0 UV-I 0 W/m 3,3 C 3,7 C 3,2 km/h (1 Bft) 100,00 %
16.12.2015 06:40 3,7 C 97 % 1029,1 hPa 0,0 l/m 0,8 km/h (0 Bft) NO 56 0 min 0,000 mm 0,0 UV-I 0 W/m 3,3 C 3,7 C 1,6 km/h (1 Bft) 100,00 %
16.12.2015 06:45 3,7 C 97 % 1029,1 hPa 0,0 l/m 1,4 km/h (1 Bft) O 97 0 min 0,000 mm 0,0 UV-I 0 W/m 3,3 C 3,7 C 3,2 km/h (1 Bft) 99,17 %
16.12.2015 06:50 3,8 C 97 % 1029,1 hPa 0,0 l/m 0,6 km/h (0 Bft) O 99 0 min 0,000 mm 0,0 UV-I 0 W/m 3,4 C 3,8 C 3,2 km/h (1 Bft) 98,20 %
16.12.2015 06:55 3,8 C 97 % 1029,1 hPa 0,0 l/m 0,4 km/h (0 Bft) O 99 0 min 0,000 mm 0,0 UV-I 0 W/m 3,4 C 3,8 C 1,6 km/h (1 Bft) 100,00 %
16.12.2015 07:00 3,8 C 97 % 1028,9 hPa 0,0 l/m 0,6 km/h (0 Bft) SO 141 0 min 0,000 mm 0,0 UV-I 0 W/m 3,4 C 3,8 C 1,6 km/h (1 Bft) 98,39 %
16.12.2015 07:05 3,9 C 97 % 1028,9 hPa 0,0 l/m 2,4 km/h (1 Bft) S-SO 160 0 min 0,000 mm 0,0 UV-I 0 W/m 3,5 C 3,9 C 6,4 km/h (2 Bft) 99,07 %
16.12.2015 07:10 4,0 C 96 % 1029,0 hPa 0,0 l/m 2,6 km/h (1 Bft) S-SO 154 0 min 0,000 mm 0,0 UV-I 0 W/m 3,4 C 4,0 C 6,4 km/h (2 Bft) 98,26 %
16.12.2015 07:15 4,1 C 96 % 1029,1 hPa 0,0 l/m 2,2 km/h (1 Bft) S 176 0 min 0,000 mm 0,0 UV-I 0 W/m 3,5 C 4,1 C 6,4 km/h (2 Bft) 98,37 %
16.12.2015 07:20 4,2 C 96 % 1029,2 hPa 0,0 l/m 1,8 km/h (1 Bft) S-SO 154 0 min 0,000 mm 0,0 UV-I 0 W/m 3,6 C 4,2 C 3,2 km/h (1 Bft) 96,00 %
16.12.2015 07:25 4,2 C 96 % 1029,4 hPa 0,0 l/m 0,9 km/h (0 Bft) NO 45 0 min 0,000 mm 0,0 UV-I 0 W/m 3,6 C 4,2 C 3,2 km/h (1 Bft) 97,06 %
16.12.2015 07:30 4,1 C 96 % 1029,5 hPa 0,0 l/m 0,6 km/h (0 Bft) N 5 0 min 0,000 mm 0,0 UV-I 0 W/m 3,5 C 4,1 C 1,6 km/h (1 Bft) 95,61 %
16.12.2015 07:35 3,9 C 96 % 1029,6 hPa 0,0 l/m 0,2 km/h (0 Bft) N 350 0 min 0,000 mm 0,0 UV-I 0 W/m 3,3 C 3,9 C 1,6 km/h (1 Bft) 96,69 %
16.12.2015 07:40 3,9 C 96 % 1029,6 hPa 0,0 l/m 0,2 km/h (0 Bft) N 355 0 min 0,000 mm 0,0 UV-I 0 W/m 3,3 C 3,9 C 1,6 km/h (1 Bft) 98,17 %
16.12.2015 07:45 3,9 C 96 % 1029,7 hPa 0,0 l/m 2,0 km/h (1 Bft) N 9 0 min 0,000 mm 0,0 UV-I 0 W/m 3,3 C 3,9 C 3,2 km/h (1 Bft) 95,83 %
16.12.2015 07:50 3,9 C 96 % 1029,7 hPa 0,0 l/m 3,3 km/h (1 Bft) N-NO 32 0 min 0,000 mm 0,0 UV-I 0 W/m 3,3 C 3,9 C 4,8 km/h (1 Bft) 97,39 %
16.12.2015 07:55 3,9 C 96 % 1029,8 hPa 0,0 l/m 3,1 km/h (1 Bft) N-NO 28 0 min 0,000 mm 0,0 UV-I 2 W/m 3,3 C 3,9 C 4,8 km/h (1 Bft) 98,31 %
16.12.2015 08:00 3,9 C 96 % 1029,8 hPa 0,0 l/m 1,9 km/h (1 Bft) N-NO 28 0 min 0,000 mm 0,0 UV-I 6 W/m 3,3 C 3,9 C 4,8 km/h (1 Bft) 99,12 %
16.12.2015 08:05 3,9 C 96 % 1029,8 hPa 0,0 l/m 2,7 km/h (1 Bft) N-NO 28 0 min 0,000 mm 0,0 UV-I 8 W/m 3,3 C 3,9 C 4,8 km/h (1 Bft) 100,00 %
16.12.2015 08:10 3,9 C 96 % 1029,9 hPa 0,0 l/m 1,4 km/h (1 Bft) N-NO 28 0 min 0,000 mm 0,0 UV-I 10 W/m 3,3 C 3,9 C 3,2 km/h (1 Bft) 100,00 %
16.12.2015 08:15 3,9 C 97 % 1029,9 hPa 0,0 l/m 1,5 km/h (1 Bft) N-NO 15 0 min 0,000 mm 0,0 UV-I 12 W/m 3,5 C 3,9 C 4,8 km/h (1 Bft) 100,00 %
16.12.2015 08:20 3,9 C 97 % 1029,9 hPa 0,0 l/m 3,7 km/h (1 Bft) N-NO 22 0 min 0,000 mm 0,0 UV-I 14 W/m 3,5 C 3,9 C 6,4 km/h (2 Bft) 100,00 %
16.12.2015 08:25 3,9 C 97 % 1029,9 hPa 0,0 l/m 2,9 km/h (1 Bft) N 9 0 min 0,000 mm 0,0 UV-I 17 W/m 3,5 C 3,9 C 4,8 km/h (1 Bft) 98,25 %
16.12.2015 08:30 3,9 C 97 % 1030,1 hPa 0,0 l/m 1,7 km/h (1 Bft) N-NO 23 0 min 0,000 mm 0,0 UV-I 20 W/m 3,5 C 3,9 C 6,4 km/h (2 Bft) 100,00 %
16.12.2015 08:35 3,9 C 97 % 1030,1 hPa 0,0 l/m 0,8 km/h (0 Bft) N 5 0 min 0,000 mm 0,0 UV-I 21 W/m 3,5 C 3,9 C 3,2 km/h (1 Bft) 100,00 %
16.12.2015 08:40 3,9 C 97 % 1030,2 hPa 0,0 l/m 0,5 km/h (0 Bft) N 355 0 min 0,000 mm 0,0 UV-I 24 W/m 3,5 C 3,9 C 3,2 km/h (1 Bft) 99,19 %
16.12.2015 08:45 3,9 C 97 % 1030,1 hPa 0,0 l/m 0,4 km/h (0 Bft) N 355 0 min 0,000 mm 0,0 UV-I 25 W/m 3,5 C 3,9 C 4,8 km/h (1 Bft) 98,35 %
16.12.2015 08:50 4,1 C 97 % 1030,2 hPa 0,0 l/m 1,3 km/h (1 Bft) N 355 0 min 0,000 mm 0,0 UV-I 23 W/m 3,7 C 4,1 C 3,2 km/h (1 Bft) 100,00 %
16.12.2015 08:55 4,1 C 97 % 1030,2 hPa 0,0 l/m 1,4 km/h (1 Bft) N 355 0 min 0,000 mm 0,0 UV-I 24 W/m 3,7 C 4,1 C 3,2 km/h (1 Bft) 99,13 %
16.12.2015 09:00 4,1 C 97 % 1030,3 hPa 0,0 l/m 2,1 km/h (1 Bft) N-NO 24 0 min 0,000 mm 0,0 UV-I 27 W/m 3,7 C 4,1 C 3,2 km/h (1 Bft) 99,13 %
16.12.2015 09:05 4,1 C 97 % 1030,3 hPa 0,0 l/m 1,0 km/h (0 Bft) N-NO 24 0 min 0,000 mm 0,0 UV-I 32 W/m 3,7 C 4,1 C 3,2 km/h (1 Bft) 97,50 %
16.12.2015 09:10 4,2 C 97 % 1030,3 hPa 0,0 l/m 1,1 km/h (1 Bft) N-NO 24 0 min 0,000 mm 0,0 UV-I 34 W/m 3,8 C 4,2 C 3,2 km/h (1 Bft) 100,00 %
16.12.2015 09:15 4,2 C 97 % 1030,3 hPa 0,0 l/m 2,5 km/h (1 Bft) N-NO 27 0 min 0,000 mm 0,0 UV-I 37 W/m 3,8 C 4,2 C 4,8 km/h (1 Bft) 99,13 %
16.12.2015 09:20 4,2 C 97 % 1030,4 hPa 0,0 l/m 2,8 km/h (1 Bft) N-NO 29 0 min 0,000 mm 0,0 UV-I 37 W/m 3,8 C 4,2 C 4,8 km/h (1 Bft) 97,62 %
16.12.2015 09:25 4,3 C 97 % 1030,3 hPa 0,0 l/m 2,7 km/h (1 Bft) NO 36 0 min 0,000 mm 0,0 UV-I 39 W/m 3,9 C 4,3 C 4,8 km/h (1 Bft) 95,76 %
16.12.2015 09:30 4,3 C 97 % 1030,4 hPa 0,0 l/m 1,2 km/h (1 Bft) NO 36 0 min 0,000 mm 0,0 UV-I 44 W/m 3,9 C 4,3 C 3,2 km/h (1 Bft) 97,44 %
16.12.2015 09:35 4,4 C 97 % 1030,4 hPa 0,0 l/m 0,1 km/h (0 Bft) NO 36 0 min 0,000 mm 0,0 UV-I 47 W/m 4,0 C 4,4 C 1,6 km/h (1 Bft) 98,17 %
16.12.2015 09:40 4,4 C 97 % 1030,3 hPa 0,0 l/m 0,1 km/h (0 Bft) NO 36 0 min 0,000 mm 0,0 UV-I 49 W/m 4,0 C 4,4 C 1,6 km/h (1 Bft) 96,77 %
16.12.2015 09:45 4,6 C 96 % 1030,3 hPa 0,0 l/m 1,6 km/h (1 Bft) NO 36 0 min 0,000 mm 0,0 UV-I 53 W/m 4,0 C 4,6 C 3,2 km/h (1 Bft) 96,52 %
16.12.2015 09:50 4,7 C 96 % 1030,3 hPa 0,0 l/m 1,3 km/h (1 Bft) NO 36 0 min 0,000 mm 0,0 UV-I 54 W/m 4,1 C 4,7 C 3,2 km/h (1 Bft) 97,50 %
16.12.2015 09:55 4,8 C 96 % 1030,3 hPa 0,0 l/m 1,4 km/h (1 Bft) O 96 0 min 0,000 mm 0,0 UV-I 62 W/m 4,2 C 4,8 C 4,8 km/h (1 Bft) 98,06 %
16.12.2015 10:00 5,0 C 95 % 1030,3 hPa 0,0 l/m 2,1 km/h (1 Bft) O-SO 120 0 min 0,025 mm 0,0 UV-I 71 W/m 4,3 C 5,0 C 4,8 km/h (1 Bft) 99,24 %
16.12.2015 10:05 5,1 C 94 % 1030,3 hPa 0,0 l/m 4,0 km/h (1 Bft) O-SO 121 0 min 0,000 mm 0,0 UV-I 74 W/m 4,2 C 5,1 C 6,4 km/h (2 Bft) 97,39 %
16.12.2015 10:10 5,2 C 93 % 1030,6 hPa 0,0 l/m 3,1 km/h (1 Bft) SO 130 0 min 0,000 mm 0,0 UV-I 77 W/m 4,2 C 5,2 C 9,7 km/h (2 Bft) 100,00 %
16.12.2015 10:15 5,3 C 94 % 1030,6 hPa 0,0 l/m 1,1 km/h (1 Bft) NW 304 0 min 0,000 mm 0,0 UV-I 80 W/m 4,4 C 5,3 C 3,2 km/h (1 Bft) 100,00 %
16.12.2015 10:20 5,3 C 94 % 1030,6 hPa 0,0 l/m 0,8 km/h (0 Bft) N 5 0 min 0,000 mm 0,0 UV-I 96 W/m 4,4 C 5,3 C 4,8 km/h (1 Bft) 100,00 %
16.12.2015 10:25 5,3 C 94 % 1030,5 hPa 0,0 l/m 2,4 km/h (1 Bft) N 5 0 min 0,000 mm 0,0 UV-I 111 W/m 4,4 C 5,3 C 4,8 km/h (1 Bft) 98,35 %
16.12.2015 10:30 5,2 C 93 % 1030,5 hPa 0,0 l/m 0,5 km/h (0 Bft) N 5 0 min 0,000 mm 0,0 UV-I 122 W/m 4,2 C 5,2 C 1,6 km/h (1 Bft) 99,10 %
16.12.2015 10:35 5,3 C 93 % 1030,5 hPa 0,0 l/m 0,1 km/h (0 Bft) N 5 0 min 0,000 mm 0,0 UV-I 119 W/m 4,3 C 5,3 C 1,6 km/h (1 Bft) 99,19 %
16.12.2015 10:40 5,3 C 93 % 1030,4 hPa 0,0 l/m 0,0 km/h (0 Bft) N 5 0 min 0,000 mm 0,0 UV-I 127 W/m 4,3 C 5,3 C 0,0 km/h (0 Bft) 100,00 %
16.12.2015 10:45 5,6 C 92 % 1030,5 hPa 0,0 l/m 0,5 km/h (0 Bft) N-NO 13 0 min 0,000 mm 0,0 UV-I 140 W/m 4,4 C 5,6 C 3,2 km/h (1 Bft) 99,17 %
16.12.2015 10:50 5,7 C 92 % 1030,4 hPa 0,0 l/m 1,4 km/h (1 Bft) O-NO 76 0 min 0,000 mm 0,0 UV-I 132 W/m 4,5 C 5,7 C 3,2 km/h (1 Bft) 100,00 %
16.12.2015 10:55 5,8 C 92 % 1030,5 hPa 0,0 l/m 3,0 km/h (1 Bft) O-NO 61 0 min 0,000 mm 0,0 UV-I 141 W/m 4,6 C 5,8 C 6,4 km/h (2 Bft) 98,37 %
16.12.2015 11:00 5,9 C 90 % 1030,4 hPa 0,0 l/m 5,1 km/h (1 Bft) O-NO 64 0 min 0,051 mm 0,0 UV-I 121 W/m 4,4 C 5,9 C 8,0 km/h (2 Bft) 99,08 %
16.12.2015 11:05 5,9 C 91 % 1030,4 hPa 0,0 l/m 4,2 km/h (1 Bft) NO 53 0 min 0,000 mm 0,0 UV-I 126 W/m 4,5 C 5,9 C 6,4 km/h (2 Bft) 99,17 %
16.12.2015 11:10 5,9 C 91 % 1030,2 hPa 0,0 l/m 3,3 km/h (1 Bft) O-NO 66 0 min 0,000 mm 0,0 UV-I 138 W/m 4,5 C 5,9 C 6,4 km/h (2 Bft) 99,11 %
16.12.2015 11:15 6,1 C 90 % 1030,2 hPa 0,0 l/m 1,6 km/h (1 Bft) O-NO 67 0 min 0,000 mm 0,0 UV-I 140 W/m 4,6 C 6,1 C 3,2 km/h (1 Bft) 100,00 %
16.12.2015 11:20 6,2 C 90 % 1030,1 hPa 0,0 l/m 1,6 km/h (1 Bft) O 90 0 min 0,000 mm 0,3 UV-I 151 W/m 4,7 C 6,2 C 3,2 km/h (1 Bft) 100,00 %
16.12.2015 11:25 6,3 C 89 % 1030,1 hPa 0,0 l/m 3,2 km/h (1 Bft) O-NO 67 0 min 0,000 mm 0,5 UV-I 161 W/m 4,6 C 6,3 C 6,4 km/h (2 Bft) 100,00 %
16.12.2015 11:30 6,3 C 90 % 1030,0 hPa 0,0 l/m 4,8 km/h (1 Bft) NO 55 0 min 0,000 mm 0,1 UV-I 145 W/m 4,8 C 6,3 C 6,4 km/h (2 Bft) 97,44 %
16.12.2015 11:35 6,3 C 90 % 1029,9 hPa 0,0 l/m 5,5 km/h (1 Bft) NO 49 0 min 0,000 mm 0,5 UV-I 164 W/m 4,8 C 6,3 C 6,4 km/h (2 Bft) 97,52 %
16.12.2015 11:40 6,6 C 90 % 1029,9 hPa 0,0 l/m 5,2 km/h (1 Bft) O-NO 67 5 min 0,000 mm 0,5 UV-I 211 W/m 5,1 C 6,6 C 6,4 km/h (2 Bft) 97,32 %
16.12.2015 11:45 6,7 C 89 % 1029,9 hPa 0,0 l/m 5,0 km/h (1 Bft) NO 47 5 min 0,000 mm 0,6 UV-I 251 W/m 5,0 C 6,7 C 8,0 km/h (2 Bft) 97,46 %
16.12.2015 11:50 6,8 C 89 % 1029,8 hPa 0,0 l/m 5,1 km/h (1 Bft) O-NO 59 5 min 0,000 mm 0,6 UV-I 262 W/m 5,1 C 6,8 C 8,0 km/h (2 Bft) 97,62 %
16.12.2015 11:55 6,9 C 88 % 1029,9 hPa 0,0 l/m 4,5 km/h (1 Bft) NO 54 5 min 0,000 mm 0,6 UV-I 280 W/m 5,1 C 6,9 C 6,4 km/h (2 Bft) 99,13 %
16.12.2015 12:00 7,0 C 88 % 1029,8 hPa 0,0 l/m 3,6 km/h (1 Bft) NO 41 5 min 0,076 mm 0,6 UV-I 233 W/m 5,2 C 7,0 C 6,4 km/h (2 Bft) 97,37 %
16.12.2015 12:05 7,1 C 87 % 1029,8 hPa 0,0 l/m 3,0 km/h (1 Bft) NO 38 5 min 0,000 mm 0,6 UV-I 236 W/m 5,1 C 7,1 C 6,4 km/h (2 Bft) 99,15 %
16.12.2015 12:10 7,2 C 86 % 1029,7 hPa 0,0 l/m 3,4 km/h (1 Bft) NO 48 5 min 0,000 mm 0,6 UV-I 252 W/m 5,0 C 7,2 C 6,4 km/h (2 Bft) 98,26 %
16.12.2015 12:15 7,3 C 87 % 1029,7 hPa 0,0 l/m 3,9 km/h (1 Bft) NO 52 5 min 0,000 mm 0,6 UV-I 255 W/m 5,3 C 7,3 C 6,4 km/h (2 Bft) 99,17 %
16.12.2015 12:20 7,3 C 85 % 1029,7 hPa 0,0 l/m 3,9 km/h (1 Bft) O-NO 71 5 min 0,000 mm 0,6 UV-I 275 W/m 4,9 C 7,3 C 6,4 km/h (2 Bft) 99,13 %
16.12.2015 12:25 7,3 C 87 % 1029,8 hPa 0,0 l/m 5,1 km/h (1 Bft) O-NO 65 5 min 0,000 mm 0,6 UV-I 282 W/m 5,3 C 7,3 C 8,0 km/h (2 Bft) 100,00 %
16.12.2015 12:30 7,3 C 87 % 1029,8 hPa 0,0 l/m 4,5 km/h (1 Bft) NO 51 5 min 0,000 mm 0,6 UV-I 283 W/m 5,3 C 7,3 C 8,0 km/h (2 Bft) 99,03 %
16.12.2015 12:35 7,5 C 87 % 1029,8 hPa 0,0 l/m 2,6 km/h (1 Bft) NO 45 5 min 0,000 mm 0,6 UV-I 277 W/m 5,5 C 7,5 C 4,8 km/h (1 Bft) 100,00 %
16.12.2015 12:40 7,6 C 87 % 1029,8 hPa 0,0 l/m 4,0 km/h (1 Bft) NO 40 5 min 0,000 mm 0,6 UV-I 268 W/m 5,6 C 7,6 C 6,4 km/h (2 Bft) 100,00 %
16.12.2015 12:45 7,7 C 87 % 1029,7 hPa 0,0 l/m 3,4 km/h (1 Bft) NO 36 5 min 0,000 mm 0,6 UV-I 226 W/m 5,7 C 7,7 C 6,4 km/h (2 Bft) 100,00 %
16.12.2015 12:50 7,6 C 87 % 1029,7 hPa 0,0 l/m 3,8 km/h (1 Bft) NO 46 5 min 0,000 mm 0,6 UV-I 211 W/m 5,6 C 7,6 C 6,4 km/h (2 Bft) 100,00 %
16.12.2015 12:55 7,6 C 86 % 1029,7 hPa 0,0 l/m 3,3 km/h (1 Bft) NO 50 5 min 0,000 mm 0,5 UV-I 186 W/m 5,4 C 7,6 C 6,4 km/h (2 Bft) 99,21 %
16.12.2015 13:00 7,4 C 87 % 1029,7 hPa 0,0 l/m 1,7 km/h (1 Bft) NO 38 5 min 0,102 mm 0,5 UV-I 178 W/m 5,4 C 7,4 C 4,8 km/h (1 Bft) 93,20 %
16.12.2015 13:05 7,6 C 87 % 1029,7 hPa 0,0 l/m 4,0 km/h (1 Bft) NO 46 5 min 0,000 mm 0,5 UV-I 179 W/m 5,6 C 7,6 C 6,4 km/h (2 Bft) 95,97 %
16.12.2015 13:10 7,7 C 87 % 1029,6 hPa 0,0 l/m 4,0 km/h (1 Bft) NO 40 5 min 0,000 mm 0,5 UV-I 194 W/m 5,7 C 7,7 C 6,4 km/h (2 Bft) 96,58 %
16.12.2015 13:15 7,4 C 88 % 1029,6 hPa 0,0 l/m 4,1 km/h (1 Bft) NO 44 0 min 0,000 mm 0,3 UV-I 122 W/m 5,5 C 7,4 C 6,4 km/h (2 Bft) 97,52 %
16.12.2015 13:20 7,6 C 88 % 1029,6 hPa 0,0 l/m 3,6 km/h (1 Bft) NO 48 5 min 0,000 mm 0,5 UV-I 200 W/m 5,7 C 7,6 C 6,4 km/h (2 Bft) 97,44 %
16.12.2015 13:25 7,7 C 87 % 1029,5 hPa 0,0 l/m 4,1 km/h (1 Bft) O-NO 57 5 min 0,000 mm 0,3 UV-I 180 W/m 5,7 C 7,7 C 6,4 km/h (2 Bft) 100,00 %
16.12.2015 13:30 7,6 C 88 % 1029,5 hPa 0,0 l/m 4,7 km/h (1 Bft) NO 42 0 min 0,000 mm 0,0 UV-I 107 W/m 5,7 C 7,6 C 6,4 km/h (2 Bft) 98,31 %
16.12.2015 13:35 7,6 C 88 % 1029,5 hPa 0,0 l/m 5,4 km/h (1 Bft) NO 55 5 min 0,000 mm 0,0 UV-I 164 W/m 5,7 C 7,6 C 8,0 km/h (2 Bft) 99,15 %
16.12.2015 13:40 7,6 C 88 % 1029,5 hPa 0,0 l/m 6,7 km/h (2 Bft) NO 46 5 min 0,000 mm 0,0 UV-I 152 W/m 5,7 C 7,4 C 9,7 km/h (2 Bft) 99,08 %
16.12.2015 13:45 7,6 C 89 % 1029,5 hPa 0,0 l/m 5,1 km/h (1 Bft) O-NO 63 5 min 0,000 mm 0,0 UV-I 159 W/m 5,9 C 7,6 C 8,0 km/h (2 Bft) 100,00 %
16.12.2015 13:50 7,5 C 88 % 1029,5 hPa 0,0 l/m 4,8 km/h (1 Bft) NO 51 5 min 0,000 mm 0,0 UV-I 140 W/m 5,6 C 7,5 C 8,0 km/h (2 Bft) 98,29 %
16.12.2015 13:55 7,4 C 89 % 1029,5 hPa 0,0 l/m 3,4 km/h (1 Bft) NO 49 0 min 0,000 mm 0,0 UV-I 131 W/m 5,7 C 7,4 C 6,4 km/h (2 Bft) 100,00 %
16.12.2015 14:00 7,5 C 90 % 1029,5 hPa 0,0 l/m 4,1 km/h (1 Bft) NO 44 5 min 0,076 mm 0,0 UV-I 136 W/m 6,0 C 7,5 C 6,4 km/h (2 Bft) 99,17 %
16.12.2015 14:05 7,6 C 89 % 1029,5 hPa 0,0 l/m 3,9 km/h (1 Bft) NO 51 5 min 0,000 mm 0,0 UV-I 141 W/m 5,9 C 7,6 C 6,4 km/h (2 Bft) 100,00 %
16.12.2015 14:10 7,6 C 89 % 1029,5 hPa 0,0 l/m 5,6 km/h (1 Bft) NO 52 5 min 0,000 mm 0,0 UV-I 164 W/m 5,9 C 7,6 C 8,0 km/h (2 Bft) 99,15 %
16.12.2015 14:15 7,6 C 89 % 1029,5 hPa 0,0 l/m 5,4 km/h (1 Bft) O-NO 59 5 min 0,000 mm 0,0 UV-I 150 W/m 5,9 C 7,6 C 8,0 km/h (2 Bft) 100,00 %
16.12.2015 14:20 7,6 C 88 % 1029,4 hPa 0,0 l/m 5,8 km/h (2 Bft) NO 53 5 min 0,000 mm 0,0 UV-I 123 W/m 5,7 C 7,6 C 8,0 km/h (2 Bft) 100,00 %
16.12.2015 14:25 7,5 C 89 % 1029,4 hPa 0,0 l/m 6,0 km/h (2 Bft) O-NO 59 5 min 0,000 mm 0,0 UV-I 129 W/m 5,8 C 7,5 C 9,7 km/h (2 Bft) 99,15 %
16.12.2015 14:30 7,5 C 89 % 1029,5 hPa 0,0 l/m 5,8 km/h (2 Bft) O-NO 66 5 min 0,000 mm 0,0 UV-I 122 W/m 5,8 C 7,5 C 8,0 km/h (2 Bft) 99,15 %
16.12.2015 14:35 7,5 C 88 % 1029,5 hPa 0,0 l/m 6,0 km/h (2 Bft) O-NO 59 5 min 0,000 mm 0,0 UV-I 115 W/m 5,6 C 7,5 C 9,7 km/h (2 Bft) 96,69 %
16.12.2015 14:40 7,4 C 89 % 1029,5 hPa 0,0 l/m 6,4 km/h (2 Bft) NO 56 5 min 0,000 mm 0,0 UV-I 103 W/m 5,7 C 7,4 C 9,7 km/h (2 Bft) 94,59 %
16.12.2015 14:45 7,4 C 90 % 1029,5 hPa 0,0 l/m 6,3 km/h (2 Bft) NO 51 0 min 0,000 mm 0,0 UV-I 87 W/m 5,9 C 7,4 C 8,0 km/h (2 Bft) 97,46 %
16.12.2015 14:50 7,3 C 89 % 1029,5 hPa 0,0 l/m 5,1 km/h (1 Bft) NO 51 0 min 0,000 mm 0,0 UV-I 66 W/m 5,6 C 7,3 C 6,4 km/h (2 Bft) 96,52 %
16.12.2015 14:55 7,2 C 90 % 1029,5 hPa 0,0 l/m 5,3 km/h (1 Bft) O-NO 67 0 min 0,000 mm 0,0 UV-I 59 W/m 5,7 C 7,2 C 8,0 km/h (2 Bft) 97,56 %
16.12.2015 15:00 7,1 C 90 % 1029,5 hPa 0,0 l/m 4,9 km/h (1 Bft) O-NO 63 0 min 0,051 mm 0,0 UV-I 54 W/m 5,6 C 7,1 C 8,0 km/h (2 Bft) 97,39 %
16.12.2015 15:05 6,9 C 91 % 1029,5 hPa 0,0 l/m 3,6 km/h (1 Bft) O-NO 67 0 min 0,000 mm 0,0 UV-I 52 W/m 5,5 C 6,9 C 6,4 km/h (2 Bft) 95,65 %
16.12.2015 15:10 6,9 C 91 % 1029,6 hPa 0,0 l/m 2,3 km/h (1 Bft) O-NO 67 0 min 0,000 mm 0,0 UV-I 49 W/m 5,5 C 6,9 C 4,8 km/h (1 Bft) 99,19 %
16.12.2015 15:15 6,8 C 91 % 1029,6 hPa 0,0 l/m 2,2 km/h (1 Bft) O-NO 67 0 min 0,000 mm 0,0 UV-I 46 W/m 5,4 C 6,8 C 3,2 km/h (1 Bft) 99,11 %
16.12.2015 15:20 6,7 C 91 % 1029,7 hPa 0,0 l/m 2,2 km/h (1 Bft) O-NO 66 0 min 0,000 mm 0,0 UV-I 45 W/m 5,3 C 6,7 C 4,8 km/h (1 Bft) 100,00 %
16.12.2015 15:25 6,7 C 91 % 1029,6 hPa 0,0 l/m 2,2 km/h (1 Bft) O-NO 66 0 min 0,000 mm 0,0 UV-I 39 W/m 5,3 C 6,7 C 3,2 km/h (1 Bft) 99,15 %
16.12.2015 15:30 6,6 C 92 % 1029,6 hPa 0,0 l/m 2,6 km/h (1 Bft) O-NO 66 0 min 0,000 mm 0,0 UV-I 33 W/m 5,4 C 6,6 C 3,2 km/h (1 Bft) 100,00 %
16.12.2015 15:35 6,4 C 92 % 1029,6 hPa 0,0 l/m 2,5 km/h (1 Bft) O-NO 66 0 min 0,000 mm 0,0 UV-I 31 W/m 5,2 C 6,4 C 4,8 km/h (1 Bft) 99,22 %
16.12.2015 15:40 6,4 C 92 % 1029,6 hPa 0,0 l/m 2,9 km/h (1 Bft) O-NO 62 0 min 0,000 mm 0,0 UV-I 27 W/m 5,2 C 6,4 C 4,8 km/h (1 Bft) 100,00 %
16.12.2015 15:45 6,2 C 93 % 1029,6 hPa 0,0 l/m 3,1 km/h (1 Bft) O-NO 69 0 min 0,000 mm 0,0 UV-I 23 W/m 5,2 C 6,2 C 6,4 km/h (2 Bft) 99,20 %
16.12.2015 15:50 6,2 C 93 % 1029,7 hPa 0,0 l/m 3,1 km/h (1 Bft) O-NO 68 0 min 0,000 mm 0,0 UV-I 18 W/m 5,2 C 6,2 C 4,8 km/h (1 Bft) 99,10 %
16.12.2015 15:55 6,2 C 93 % 1029,7 hPa 0,0 l/m 3,3 km/h (1 Bft) O-NO 62 5 min 0,000 mm 0,0 UV-I 14 W/m 5,2 C 6,2 C 4,8 km/h (1 Bft) 100,00 %
16.12.2015 16:00 6,2 C 93 % 1029,7 hPa 0,0 l/m 2,5 km/h (1 Bft) O-NO 62 0 min 0,025 mm 0,0 UV-I 11 W/m 5,2 C 6,2 C 4,8 km/h (1 Bft) 100,00 %
16.12.2015 16:05 6,1 C 93 % 1029,7 hPa 0,0 l/m 0,8 km/h (0 Bft) O-NO 62 0 min 0,000 mm 0,0 UV-I 8 W/m 5,1 C 6,1 C 3,2 km/h (1 Bft) 100,00 %
16.12.2015 16:10 6,1 C 93 % 1029,7 hPa 0,0 l/m 2,3 km/h (1 Bft) O-NO 62 0 min 0,000 mm 0,0 UV-I 2 W/m 5,1 C 6,1 C 3,2 km/h (1 Bft) 100,00 %
16.12.2015 16:15 6,0 C 93 % 1029,7 hPa 0,0 l/m 1,1 km/h (1 Bft) O-NO 62 0 min 0,000 mm 0,0 UV-I 0 W/m 5,0 C 6,0 C 3,2 km/h (1 Bft) 99,17 %
16.12.2015 16:20 5,9 C 93 % 1029,6 hPa 0,0 l/m 1,3 km/h (1 Bft) O-NO 62 0 min 0,000 mm 0,0 UV-I 0 W/m 4,9 C 5,9 C 3,2 km/h (1 Bft) 98,43 %
16.12.2015 16:25 5,8 C 93 % 1029,6 hPa 0,0 l/m 2,1 km/h (1 Bft) O-NO 62 0 min 0,000 mm 0,0 UV-I 0 W/m 4,8 C 5,8 C 3,2 km/h (1 Bft) 97,44 %
16.12.2015 16:30 5,8 C 93 % 1029,6 hPa 0,0 l/m 2,7 km/h (1 Bft) O-NO 62 0 min 0,000 mm 0,0 UV-I 0 W/m 4,8 C 5,8 C 4,8 km/h (1 Bft) 99,13 %
16.12.2015 16:35 5,8 C 94 % 1029,5 hPa 0,0 l/m 3,4 km/h (1 Bft) O-NO 57 0 min 0,000 mm 0,0 UV-I 0 W/m 4,9 C 5,8 C 4,8 km/h (1 Bft) 95,76 %
16.12.2015 16:40 5,7 C 94 % 1029,4 hPa 0,0 l/m 4,2 km/h (1 Bft) O-NO 60 0 min 0,000 mm 0,0 UV-I 0 W/m 4,8 C 5,7 C 6,4 km/h (2 Bft) 97,44 %
16.12.2015 16:45 5,6 C 94 % 1029,4 hPa 0,0 l/m 5,5 km/h (1 Bft) O-NO 74 0 min 0,000 mm 0,0 UV-I 0 W/m 4,7 C 5,6 C 8,0 km/h (2 Bft) 98,11 %
16.12.2015 16:50 5,6 C 94 % 1029,4 hPa 0,0 l/m 5,6 km/h (1 Bft) NO 48 0 min 0,000 mm 0,0 UV-I 0 W/m 4,7 C 5,6 C 8,0 km/h (2 Bft) 97,52 %
16.12.2015 16:55 5,3 C 94 % 1029,5 hPa 0,0 l/m 5,6 km/h (1 Bft) NO 38 0 min 0,000 mm 0,0 UV-I 0 W/m 4,4 C 5,3 C 8,0 km/h (2 Bft) 96,67 %
16.12.2015 17:00 5,2 C 94 % 1029,5 hPa 0,0 l/m 4,3 km/h (1 Bft) NO 55 0 min 0,000 mm 0,0 UV-I 0 W/m 4,3 C 5,2 C 6,4 km/h (2 Bft) 97,32 %
16.12.2015 17:05 5,0 C 95 % 1029,5 hPa 0,0 l/m 3,8 km/h (1 Bft) NO 38 0 min 0,000 mm 0,0 UV-I 0 W/m 4,3 C 5,0 C 4,8 km/h (1 Bft) 97,54 %
16.12.2015 17:10 4,8 C 95 % 1029,5 hPa 0,0 l/m 3,8 km/h (1 Bft) NO 38 0 min 0,000 mm 0,0 UV-I 0 W/m 4,1 C 4,8 C 4,8 km/h (1 Bft) 100,00 %
16.12.2015 17:15 4,8 C 95 % 1029,5 hPa 0,0 l/m 4,1 km/h (1 Bft) NO 36 0 min 0,000 mm 0,0 UV-I 0 W/m 4,1 C 4,8 C 6,4 km/h (2 Bft) 97,39 %
16.12.2015 17:20 4,7 C 95 % 1029,6 hPa 0,0 l/m 3,5 km/h (1 Bft) NO 51 0 min 0,000 mm 0,0 UV-I 0 W/m 4,0 C 4,7 C 6,4 km/h (2 Bft) 99,21 %
16.12.2015 17:25 4,7 C 96 % 1029,5 hPa 0,0 l/m 4,2 km/h (1 Bft) NO 45 0 min 0,000 mm 0,0 UV-I 0 W/m 4,1 C 4,7 C 6,4 km/h (2 Bft) 100,00 %
16.12.2015 17:30 4,8 C 96 % 1029,4 hPa 0,0 l/m 3,9 km/h (1 Bft) NO 51 0 min 0,000 mm 0,0 UV-I 0 W/m 4,2 C 4,8 C 6,4 km/h (2 Bft) 100,00 %
16.12.2015 17:35 4,8 C 96 % 1029,4 hPa 0,0 l/m 3,6 km/h (1 Bft) NO 51 0 min 0,000 mm 0,0 UV-I 0 W/m 4,2 C 4,8 C 4,8 km/h (1 Bft) 100,00 %
16.12.2015 17:40 4,7 C 95 % 1029,3 hPa 0,0 l/m 3,5 km/h (1 Bft) O-NO 57 0 min 0,000 mm 0,0 UV-I 0 W/m 4,0 C 4,7 C 6,4 km/h (2 Bft) 99,11 %
16.12.2015 17:45 4,6 C 95 % 1029,4 hPa 0,0 l/m 3,3 km/h (1 Bft) NO 55 0 min 0,000 mm 0,0 UV-I 0 W/m 3,9 C 4,6 C 4,8 km/h (1 Bft) 99,19 %
16.12.2015 17:50 4,4 C 96 % 1029,4 hPa 0,0 l/m 2,8 km/h (1 Bft) NO 54 0 min 0,000 mm 0,0 UV-I 0 W/m 3,8 C 4,4 C 4,8 km/h (1 Bft) 100,00 %
16.12.2015 17:55 4,4 C 96 % 1029,4 hPa 0,0 l/m 2,2 km/h (1 Bft) NO 54 0 min 0,000 mm 0,0 UV-I 0 W/m 3,8 C 4,4 C 3,2 km/h (1 Bft) 98,31 %
16.12.2015 18:00 4,2 C 96 % 1029,5 hPa 0,0 l/m 2,0 km/h (1 Bft) NO 54 0 min 0,000 mm 0,0 UV-I 0 W/m 3,6 C 4,2 C 3,2 km/h (1 Bft) 98,31 %
16.12.2015 18:05 3,9 C 96 % 1029,4 hPa 0,0 l/m 2,1 km/h (1 Bft) NO 54 0 min 0,000 mm 0,0 UV-I 0 W/m 3,3 C 3,9 C 4,8 km/h (1 Bft) 100,00 %
16.12.2015 18:10 4,2 C 97 % 1029,4 hPa 0,0 l/m 2,7 km/h (1 Bft) NO 54 0 min 0,000 mm 0,0 UV-I 0 W/m 3,8 C 4,2 C 4,8 km/h (1 Bft) 98,17 %
16.12.2015 18:15 4,2 C 97 % 1029,4 hPa 0,0 l/m 3,4 km/h (1 Bft) NO 54 0 min 0,000 mm 0,0 UV-I 0 W/m 3,8 C 4,2 C 4,8 km/h (1 Bft) 99,15 %
16.12.2015 18:20 4,1 C 96 % 1029,4 hPa 0,0 l/m 3,0 km/h (1 Bft) NO 54 0 min 0,000 mm 0,0 UV-I 0 W/m 3,5 C 4,1 C 4,8 km/h (1 Bft) 100,00 %
16.12.2015 18:25 3,8 C 96 % 1029,4 hPa 0,0 l/m 3,0 km/h (1 Bft) NO 55 0 min 0,000 mm 0,0 UV-I 0 W/m 3,2 C 3,8 C 4,8 km/h (1 Bft) 100,00 %
16.12.2015 18:30 3,7 C 96 % 1029,4 hPa 0,0 l/m 3,4 km/h (1 Bft) O-NO 59 0 min 0,000 mm 0,0 UV-I 0 W/m 3,1 C 3,7 C 4,8 km/h (1 Bft) 98,25 %
16.12.2015 18:35 3,9 C 97 % 1029,2 hPa 0,0 l/m 3,2 km/h (1 Bft) O-NO 58 0 min 0,000 mm 0,0 UV-I 0 W/m 3,5 C 3,9 C 4,8 km/h (1 Bft) 98,31 %
16.12.2015 18:40 4,2 C 97 % 1029,2 hPa 0,0 l/m 4,2 km/h (1 Bft) NO 51 0 min 0,000 mm 0,0 UV-I 0 W/m 3,8 C 4,2 C 6,4 km/h (2 Bft) 99,15 %
16.12.2015 18:45 4,1 C 96 % 1029,4 hPa 0,0 l/m 3,7 km/h (1 Bft) NO 51 0 min 0,000 mm 0,0 UV-I 0 W/m 3,5 C 4,1 C 4,8 km/h (1 Bft) 95,12 %
16.12.2015 18:50 3,8 C 96 % 1029,4 hPa 0,0 l/m 2,6 km/h (1 Bft) NO 51 0 min 0,000 mm 0,0 UV-I 0 W/m 3,2 C 3,8 C 4,8 km/h (1 Bft) 97,32 %
16.12.2015 18:55 3,8 C 96 % 1029,4 hPa 0,0 l/m 3,1 km/h (1 Bft) O-NO 57 0 min 0,000 mm 0,0 UV-I 0 W/m 3,2 C 3,8 C 4,8 km/h (1 Bft) 97,44 %
16.12.2015 19:00 3,7 C 97 % 1029,5 hPa 0,0 l/m 3,3 km/h (1 Bft) NO 55 0 min 0,000 mm 0,0 UV-I 0 W/m 3,3 C 3,7 C 6,4 km/h (2 Bft) 97,52 %
16.12.2015 19:05 3,8 C 97 % 1029,5 hPa 0,0 l/m 5,9 km/h (2 Bft) NO 55 0 min 0,000 mm 0,0 UV-I 0 W/m 3,4 C 3,8 C 9,7 km/h (2 Bft) 98,26 %
16.12.2015 19:10 3,9 C 97 % 1029,5 hPa 0,0 l/m 6,0 km/h (2 Bft) NO 51 0 min 0,000 mm 0,0 UV-I 0 W/m 3,5 C 3,9 C 8,0 km/h (2 Bft) 96,58 %
16.12.2015 19:15 3,9 C 97 % 1029,5 hPa 0,0 l/m 6,0 km/h (2 Bft) NO 50 0 min 0,000 mm 0,0 UV-I 0 W/m 3,5 C 3,9 C 8,0 km/h (2 Bft) 98,31 %
16.12.2015 19:20 3,8 C 97 % 1029,5 hPa 0,0 l/m 7,4 km/h (2 Bft) NO 50 0 min 0,000 mm 0,0 UV-I 0 W/m 3,4 C 2,9 C 9,7 km/h (2 Bft) 99,08 %
16.12.2015 19:25 3,8 C 97 % 1029,4 hPa 0,0 l/m 7,5 km/h (2 Bft) O-NO 63 0 min 0,000 mm 0,0 UV-I 0 W/m 3,4 C 2,8 C 11,3 km/h (2 Bft) 100,00 %
16.12.2015 19:30 3,8 C 97 % 1029,4 hPa 0,0 l/m 9,7 km/h (2 Bft) O-NO 60 0 min 0,000 mm 0,0 UV-I 0 W/m 3,4 C 1,0 C 14,5 km/h (3 Bft) 95,65 %
16.12.2015 19:35 3,7 C 97 % 1029,4 hPa 0,0 l/m 9,1 km/h (2 Bft) NO 51 0 min 0,000 mm 0,0 UV-I 0 W/m 3,3 C 1,3 C 17,7 km/h (3 Bft) 99,17 %
16.12.2015 19:40 3,5 C 97 % 1029,4 hPa 0,0 l/m 11,6 km/h (2 Bft) O-NO 58 0 min 0,000 mm 0,0 UV-I 0 W/m 3,1 C -0,7 C 16,1 km/h (3 Bft) 100,00 %
16.12.2015 19:45 3,3 C 96 % 1029,5 hPa 0,0 l/m 8,5 km/h (2 Bft) O-NO 64 0 min 0,000 mm 0,0 UV-I 0 W/m 2,7 C 1,4 C 12,9 km/h (3 Bft) 100,00 %
16.12.2015 19:50 3,1 C 97 % 1029,6 hPa 0,0 l/m 7,4 km/h (2 Bft) O-NO 57 0 min 0,000 mm 0,0 UV-I 0 W/m 2,7 C 2,2 C 11,3 km/h (2 Bft) 99,19 %
16.12.2015 19:55 2,9 C 97 % 1029,7 hPa 0,0 l/m 5,2 km/h (1 Bft) O-NO 65 0 min 0,000 mm 0,0 UV-I 0 W/m 2,5 C 2,9 C 9,7 km/h (2 Bft) 99,13 %
16.12.2015 20:00 2,8 C 97 % 1029,6 hPa 0,0 l/m 4,0 km/h (1 Bft) NO 56 0 min 0,000 mm 0,0 UV-I 0 W/m 2,4 C 2,8 C 6,4 km/h (2 Bft) 100,00 %
16.12.2015 20:05 2,7 C 97 % 1029,6 hPa 0,0 l/m 6,0 km/h (2 Bft) NO 56 0 min 0,000 mm 0,0 UV-I 0 W/m 2,3 C 2,7 C 9,7 km/h (2 Bft) 99,12 %
16.12.2015 20:10 2,7 C 97 % 1029,5 hPa 0,0 l/m 4,5 km/h (1 Bft) O-NO 59 0 min 0,000 mm 0,0 UV-I 0 W/m 2,3 C 2,7 C 6,4 km/h (2 Bft) 99,13 %
16.12.2015 20:15 2,7 C 97 % 1029,6 hPa 0,0 l/m 4,5 km/h (1 Bft) O-NO 76 0 min 0,000 mm 0,0 UV-I 0 W/m 2,3 C 2,7 C 8,0 km/h (2 Bft) 100,00 %
16.12.2015 20:20 2,7 C 98 % 1029,7 hPa 0,0 l/m 3,5 km/h (1 Bft) O-NO 65 0 min 0,000 mm 0,0 UV-I 0 W/m 2,4 C 2,7 C 6,4 km/h (2 Bft) 99,19 %
16.12.2015 20:25 2,7 C 98 % 1029,7 hPa 0,0 l/m 3,2 km/h (1 Bft) O 84 0 min 0,000 mm 0,0 UV-I 0 W/m 2,4 C 2,7 C 6,4 km/h (2 Bft) 100,00 %
16.12.2015 20:30 2,7 C 98 % 1029,7 hPa 0,0 l/m 5,3 km/h (1 Bft) O-NO 64 0 min 0,000 mm 0,0 UV-I 0 W/m 2,4 C 2,7 C 8,0 km/h (2 Bft) 100,00 %
16.12.2015 20:35 2,6 C 98 % 1029,7 hPa 0,0 l/m 5,6 km/h (1 Bft) O-NO 78 0 min 0,000 mm 0,0 UV-I 0 W/m 2,3 C 2,6 C 11,3 km/h (2 Bft) 99,17 %
16.12.2015 20:40 2,5 C 98 % 1029,8 hPa 0,0 l/m 4,5 km/h (1 Bft) O-NO 65 0 min 0,000 mm 0,0 UV-I 0 W/m 2,2 C 2,5 C 8,0 km/h (2 Bft) 100,00 %
16.12.2015 20:45 2,4 C 98 % 1029,8 hPa 0,0 l/m 4,7 km/h (1 Bft) O-NO 78 0 min 0,000 mm 0,0 UV-I 0 W/m 2,1 C 2,4 C 8,0 km/h (2 Bft) 98,37 %
16.12.2015 20:50 2,4 C 98 % 1029,8 hPa 0,0 l/m 4,8 km/h (1 Bft) O-NO 69 0 min 0,000 mm 0,0 UV-I 0 W/m 2,1 C 2,4 C 8,0 km/h (2 Bft) 96,52 %
16.12.2015 20:55 2,4 C 98 % 1029,8 hPa 0,0 l/m 4,7 km/h (1 Bft) O-NO 65 0 min 0,000 mm 0,0 UV-I 0 W/m 2,1 C 2,4 C 8,0 km/h (2 Bft) 97,44 %
16.12.2015 21:00 2,4 C 98 % 1029,8 hPa 0,0 l/m 3,4 km/h (1 Bft) O-NO 69 0 min 0,000 mm 0,0 UV-I 0 W/m 2,1 C 2,4 C 6,4 km/h (2 Bft) 96,61 %
16.12.2015 21:05 2,5 C 98 % 1029,9 hPa 0,0 l/m 2,0 km/h (1 Bft) O-NO 69 0 min 0,000 mm 0,0 UV-I 0 W/m 2,2 C 2,5 C 4,8 km/h (1 Bft) 97,25 %
16.12.2015 21:10 2,5 C 98 % 1029,9 hPa 0,0 l/m 2,1 km/h (1 Bft) O-NO 59 0 min 0,000 mm 0,0 UV-I 0 W/m 2,2 C 2,5 C 4,8 km/h (1 Bft) 94,31 %
16.12.2015 21:15 2,5 C 98 % 1029,7 hPa 0,0 l/m 5,5 km/h (1 Bft) O-NO 60 0 min 0,000 mm 0,0 UV-I 0 W/m 2,2 C 2,5 C 9,7 km/h (2 Bft) 97,39 %
16.12.2015 21:20 2,6 C 98 % 1029,9 hPa 0,0 l/m 4,0 km/h (1 Bft) SO 130 0 min 0,000 mm 0,0 UV-I 0 W/m 2,3 C 2,6 C 11,3 km/h (2 Bft) 100,00 %
16.12.2015 21:25 2,6 C 98 % 1029,9 hPa 0,0 l/m 5,5 km/h (1 Bft) O-NO 67 0 min 0,000 mm 0,0 UV-I 0 W/m 2,3 C 2,6 C 9,7 km/h (2 Bft) 99,19 %
16.12.2015 21:30 2,7 C 98 % 1029,9 hPa 0,0 l/m 4,7 km/h (1 Bft) O-NO 63 0 min 0,000 mm 0,0 UV-I 0 W/m 2,4 C 2,7 C 8,0 km/h (2 Bft) 97,52 %
16.12.2015 21:35 2,7 C 98 % 1029,9 hPa 0,0 l/m 6,5 km/h (2 Bft) O-NO 59 0 min 0,000 mm 0,0 UV-I 0 W/m 2,4 C 2,6 C 12,9 km/h (3 Bft) 100,00 %
16.12.2015 21:40 2,7 C 98 % 1030,0 hPa 0,0 l/m 5,5 km/h (1 Bft) O-NO 58 0 min 0,000 mm 0,0 UV-I 0 W/m 2,4 C 2,7 C 8,0 km/h (2 Bft) 98,29 %
16.12.2015 21:45 2,8 C 98 % 1030,0 hPa 0,0 l/m 4,8 km/h (1 Bft) O-NO 78 0 min 0,000 mm 0,0 UV-I 0 W/m 2,5 C 2,8 C 8,0 km/h (2 Bft) 100,00 %
16.12.2015 21:50 2,8 C 98 % 1030,0 hPa 0,0 l/m 3,8 km/h (1 Bft) O-NO 69 0 min 0,000 mm 0,0 UV-I 0 W/m 2,5 C 2,8 C 6,4 km/h (2 Bft) 99,17 %
16.12.2015 21:55 2,8 C 98 % 1030,0 hPa 0,0 l/m 3,0 km/h (1 Bft) NO 52 0 min 0,000 mm 0,0 UV-I 0 W/m 2,5 C 2,8 C 4,8 km/h (1 Bft) 99,15 %
16.12.2015 22:00 2,8 C 98 % 1030,0 hPa 0,0 l/m 2,3 km/h (1 Bft) O-NO 57 0 min 0,000 mm 0,0 UV-I 0 W/m 2,5 C 2,8 C 4,8 km/h (1 Bft) 100,00 %
16.12.2015 22:05 2,8 C 98 % 1030,0 hPa 0,0 l/m 3,2 km/h (1 Bft) O-NO 58 0 min 0,000 mm 0,0 UV-I 0 W/m 2,5 C 2,8 C 4,8 km/h (1 Bft) 99,15 %
16.12.2015 22:10 2,8 C 98 % 1029,9 hPa 0,0 l/m 4,9 km/h (1 Bft) O-NO 71 0 min 0,000 mm 0,0 UV-I 0 W/m 2,5 C 2,8 C 8,0 km/h (2 Bft) 98,26 %
16.12.2015 22:15 2,8 C 98 % 1030,0 hPa 0,0 l/m 4,4 km/h (1 Bft) O-NO 61 0 min 0,000 mm 0,0 UV-I 0 W/m 2,5 C 2,8 C 6,4 km/h (2 Bft) 99,13 %
16.12.2015 22:20 2,8 C 98 % 1029,9 hPa 0,0 l/m 3,7 km/h (1 Bft) O-NO 61 0 min 0,000 mm 0,0 UV-I 0 W/m 2,5 C 2,8 C 4,8 km/h (1 Bft) 98,37 %
16.12.2015 22:25 2,8 C 98 % 1030,0 hPa 0,0 l/m 1,6 km/h (1 Bft) O-NO 67 0 min 0,000 mm 0,0 UV-I 0 W/m 2,5 C 2,8 C 4,8 km/h (1 Bft) 100,00 %
16.12.2015 22:30 2,9 C 98 % 1030,1 hPa 0,0 l/m 3,2 km/h (1 Bft) O-NO 67 0 min 0,000 mm 0,0 UV-I 0 W/m 2,6 C 2,9 C 4,8 km/h (1 Bft) 100,00 %
16.12.2015 22:35 2,9 C 98 % 1030,0 hPa 0,0 l/m 4,8 km/h (1 Bft) O-NO 67 0 min 0,000 mm 0,0 UV-I 0 W/m 2,6 C 2,9 C 8,0 km/h (2 Bft) 100,00 %
16.12.2015 22:40 2,9 C 98 % 1030,1 hPa 0,0 l/m 5,7 km/h (1 Bft) O-NO 64 0 min 0,000 mm 0,0 UV-I 0 W/m 2,6 C 2,9 C 8,0 km/h (2 Bft) 99,79 %
16.12.2015 22:45 2,8 C 98 % 1030,2 hPa 0,0 l/m 5,8 km/h (2 Bft) O-NO 74 0 min 0,000 mm 0,0 UV-I 0 W/m 2,5 C 2,8 C 8,0 km/h (2 Bft) 97,32 %
16.12.2015 22:50 2,9 C 98 % 1030,1 hPa 0,0 l/m 3,3 km/h (1 Bft) O-NO 63 0 min 0,000 mm 0,0 UV-I 0 W/m 2,6 C 2,9 C 6,4 km/h (2 Bft) 96,67 %
16.12.2015 22:55 2,9 C 98 % 1030,2 hPa 0,0 l/m 2,7 km/h (1 Bft) O 101 0 min 0,000 mm 0,0 UV-I 0 W/m 2,6 C 2,9 C 6,4 km/h (2 Bft) 97,46 %
16.12.2015 23:00 2,9 C 98 % 1030,2 hPa 0,0 l/m 2,4 km/h (1 Bft) O 86 0 min 0,000 mm 0,0 UV-I 0 W/m 2,6 C 2,9 C 4,8 km/h (1 Bft) 97,32 %
16.12.2015 23:05 2,9 C 98 % 1030,1 hPa 0,0 l/m 3,4 km/h (1 Bft) O-NO 78 0 min 0,000 mm 0,0 UV-I 0 W/m 2,6 C 2,9 C 6,4 km/h (2 Bft) 95,61 %
16.12.2015 23:10 2,9 C 98 % 1030,1 hPa 0,0 l/m 3,8 km/h (1 Bft) O-NO 76 0 min 0,000 mm 0,0 UV-I 0 W/m 2,6 C 2,9 C 6,4 km/h (2 Bft) 97,64 %
16.12.2015 23:15 3,0 C 98 % 1030,0 hPa 0,0 l/m 2,0 km/h (1 Bft) O-NO 78 0 min 0,000 mm 0,0 UV-I 0 W/m 2,7 C 3,0 C 4,8 km/h (1 Bft) 97,32 %
16.12.2015 23:20 3,0 C 98 % 1030,0 hPa 0,0 l/m 2,0 km/h (1 Bft) O-SO 112 0 min 0,000 mm 0,0 UV-I 0 W/m 2,7 C 3,0 C 3,2 km/h (1 Bft) 98,25 %
16.12.2015 23:25 3,0 C 98 % 1030,0 hPa 0,0 l/m 1,1 km/h (1 Bft) O-SO 111 0 min 0,000 mm 0,0 UV-I 0 W/m 2,7 C 3,0 C 3,2 km/h (1 Bft) 100,00 %
16.12.2015 23:30 3,0 C 98 % 1030,0 hPa 0,0 l/m 1,6 km/h (1 Bft) O-NO 78 0 min 0,000 mm 0,0 UV-I 0 W/m 2,7 C 3,0 C 4,8 km/h (1 Bft) 96,67 %
16.12.2015 23:35 3,1 C 98 % 1030,0 hPa 0,0 l/m 1,4 km/h (1 Bft) O-NO 78 0 min 0,000 mm 0,0 UV-I 0 W/m 2,8 C 3,1 C 3,2 km/h (1 Bft) 96,77 %
16.12.2015 23:40 3,1 C 98 % 1029,9 hPa 0,0 l/m 2,3 km/h (1 Bft) NO 52 0 min 0,000 mm 0,0 UV-I 0 W/m 2,8 C 3,1 C 4,8 km/h (1 Bft) 100,00 %
16.12.2015 23:45 3,1 C 98 % 1029,8 hPa 0,0 l/m 4,0 km/h (1 Bft) O-NO 67 0 min 0,000 mm 0,0 UV-I 0 W/m 2,8 C 3,1 C 6,4 km/h (2 Bft) 100,00 %
16.12.2015 23:50 3,0 C 98 % 1029,8 hPa 0,0 l/m 5,1 km/h (1 Bft) O-NO 57 0 min 0,000 mm 0,0 UV-I 0 W/m 2,7 C 3,0 C 8,0 km/h (2 Bft) 97,52 %
16.12.2015 23:55 3,0 C 98 % 1029,9 hPa 0,0 l/m 3,8 km/h (1 Bft) O-NO 61 0 min 0,000 mm 0,0 UV-I 0 W/m 2,7 C 3,0 C 6,4 km/h (2 Bft) 100,00 %
_ Min-Zeit 20:45 12:20 00:15 - 00:40 - - - - - - 20:45 19:40 00:40 13:00
Minimum _ 2,4 C 85 % 1028,3 hPa - 0,0 km/h (0 Bft) - - - - - - 2,1 C -0,7 C 0,0 km/h (0 Bft) 93,20 %
_ Max-Zeit 12:45 20:20 10:10 00:00 19:40 - - 11:40 13:00 11:45 12:30 14:00 12:45 19:35 00:05
Maximum _ 7,7 C 98 % 1030,6 hPa 0,0 l/m 11,6 km/h
O-NO (2 Bft)
- - 5 min 0,102 mm 0,6 UV-I 283 W/m 6,0 C 7,7 C 17,7 km/h
O-NO (3 Bft)
100,00 %
Durchschnitt _ 4,6 C 95 % 1029,5 hPa #0,0 l/m 2,7 km/h (1 Bft) O-NO - #2:55 h #0,406 mm 0,5 UV-I 109 W/m 3,8 C 4,5 C 5,0 km/h (1 Bft) 98,60 %